Weather History for KOQT - September, 2012

Change the Weather History Date:

Sunday, September 2, 2012

  Actual Average (KTYS) Record (KTYS)
Temperature  
Mean Temperature 80 °F 76 °F  
Max Temperature 88 °F 86 °F 98 °F (1953)
Min Temperature 73 °F 65 °F 48 °F (1987)
Degree Days  
Heating Degree Days 0 0  
Month to date heating degree days 0  
Since 1 July heating degree days 0  
Cooling Degree Days 16 11  
Month to date cooling degree days 22  
Year to date cooling degree days 1303  
Growing Degree Days 30 (Base 50)    
Moisture  
Dew Point 70 °F    
Average Humidity 78    
Maximum Humidity 89    
Minimum Humidity 51    
Precipitation  
Precipitation 0.14 in 0.09 in 1.72 in (1986)
Month to date precipitation 0.19  
Year to date precipitation 33.79  
Snow  
Snow 0.00 in 0.00 in - ()
Month to date snowfall 0.0  
Since 1 July snowfall 0.0  
Since 1 September snowfall 0.0  
Snow Depth -    
Sea Level Pressure  
Sea Level Pressure 29.98 in    
Wind  
Wind Speed 2 mph (SSW)    
Max Wind Speed 12 mph    
Max Gust Speed 30 mph    
Visibility 10 miles    
Events Rain    
T = Trace of Precipitation, MM = Missing Value Source: NWS Daily Summary

Daily Weather History Graph

Daily Weather History Graph

Search for Another Location

Airport or City:

Trip Planner

Search our weather history database for the weather conditions in past years. The results will help you decide how hot, cold, wet, or windy it might be!

Date:

Astronomy

Sep. 02, 2012 Rise Set
Actual Time 7:09 AM EDT 8:02 PM EDT
Civil Twilight 6:43 AM EDT 8:28 PM EDT
Nautical Twilight 6:12 AM EDT 8:59 PM EDT
Astronomical Twilight 5:40 AM EDT 9:31 PM EDT
Moon 8:56 PM EDT (9/2) 9:11 AM EDT (9/2)
Length of Visible Light 13h 44m
Length of Day
12h 52m
Waning Gibbous, 95% of the Moon is Illuminated
Sep 2
Waning Gibbous
Sep 8
Last Quarter
Sep 15
New
Sep 22
First Quarter
Sep 29
Full

Hourly Weather History & Observations

Time (EDT) Temp. Heat Index Dew Point Humidity Pressure Visibility Wind Dir Wind Speed Gust Speed Precip Events Conditions
12:53 AM 77.0 °F - 69.1 °F 76% 30.04 in 10.0 mi Calm Calm - N/A   Clear
1:53 AM 75.9 °F - 69.1 °F 79% 30.04 in 10.0 mi Calm Calm - N/A   Mostly Cloudy
2:53 AM 75.0 °F - 70.0 °F 84% 30.02 in 10.0 mi Calm Calm - N/A   Partly Cloudy
3:53 AM 73.9 °F - 69.1 °F 85% 30.01 in 10.0 mi Calm Calm - N/A   Partly Cloudy
4:53 AM 73.0 °F - 69.1 °F 87% 30.00 in 10.0 mi Calm Calm - N/A   Clear
5:18 AM 73.4 °F - 69.8 °F 88% 30.05 in 10.0 mi Calm Calm - N/A   Mostly Cloudy
5:28 AM 73.4 °F - 69.8 °F 88% 30.05 in 10.0 mi Calm Calm - N/A   Mostly Cloudy
5:53 AM 73.9 °F - 70.0 °F 87% 29.99 in 10.0 mi Calm Calm - N/A   Mostly Cloudy
6:53 AM 73.0 °F - 69.1 °F 87% 29.99 in 10.0 mi Calm Calm - N/A   Partly Cloudy
7:08 AM 73.4 °F - 69.8 °F 88% 30.05 in 10.0 mi Calm Calm - N/A   Mostly Cloudy
7:29 AM 73.4 °F - 69.8 °F 88% 30.04 in 10.0 mi Calm Calm - N/A   Scattered Clouds
7:53 AM 73.9 °F - 70.0 °F 87% 30.00 in 10.0 mi Calm Calm - N/A   Scattered Clouds
8:01 AM 73.4 °F - 69.8 °F 88% 30.05 in 10.0 mi Calm Calm - N/A   Mostly Cloudy
8:53 AM 75.9 °F - 70.0 °F 82% 30.01 in 10.0 mi Calm Calm - N/A   Mostly Cloudy
9:07 AM 75.2 °F - 69.8 °F 83% 30.06 in 10.0 mi Calm Calm - N/A   Mostly Cloudy
9:53 AM 79.0 °F - 70.0 °F 74% 30.00 in 10.0 mi Calm Calm - N/A   Clear
10:15 AM 80.6 °F 83.9 °F 69.8 °F 70% 30.06 in 10.0 mi Variable 3.5 mph - N/A   Mostly Cloudy
10:53 AM 82.0 °F 85.9 °F 70.0 °F 67% 30.00 in 10.0 mi Variable 5.8 mph - N/A   Mostly Cloudy
11:44 AM 82.4 °F 86.3 °F 69.8 °F 66% 30.04 in 10.0 mi South 10.4 mph - N/A   Mostly Cloudy
11:53 AM 84.9 °F 89.4 °F 70.0 °F 61% 29.99 in 10.0 mi Variable 4.6 mph - N/A   Mostly Cloudy
12:53 PM 86.0 °F 90.7 °F 70.0 °F 59% 29.96 in 10.0 mi Variable 6.9 mph - N/A   Scattered Clouds
1:53 PM 88.0 °F 91.4 °F 68.0 °F 51% 29.93 in 10.0 mi South 11.5 mph 17.3 mph N/A   Mostly Cloudy
2:20 PM 78.8 °F - 71.6 °F 78% 30.00 in 1.0 mi West 10.4 mph 29.9 mph 0.08 in Rain Light Rain
2:32 PM 75.2 °F - 71.6 °F 89% 29.99 in 4.0 mi West 4.6 mph 16.1 mph 0.14 in Rain Light Rain
2:53 PM 78.1 °F - 73.9 °F 87% 29.94 in 10.0 mi Variable 3.5 mph - 0.14 in   Partly Cloudy
3:53 PM 82.0 °F 86.7 °F 72.0 °F 71% 29.91 in 10.0 mi SSW 4.6 mph - N/A   Mostly Cloudy
4:53 PM 78.1 °F - 73.0 °F 84% 29.92 in 10.0 mi West 4.6 mph - 0.00 in Rain Light Rain
5:53 PM 80.1 °F 83.6 °F 71.1 °F 74% 29.88 in 10.0 mi Calm Calm - 0.00 in   Partly Cloudy
6:53 PM 80.1 °F 83.2 °F 70.0 °F 71% 29.87 in 10.0 mi SSW 8.1 mph - N/A   Clear
7:53 PM 79.0 °F - 70.0 °F 74% 29.87 in 10.0 mi South 3.5 mph - N/A   Mostly Cloudy
8:53 PM 78.1 °F - 70.0 °F 76% 29.88 in 10.0 mi Calm Calm - N/A   Mostly Cloudy
9:53 PM 77.0 °F - 66.9 °F 71% 29.92 in 10.0 mi South 10.4 mph 20.7 mph N/A   Overcast
10:10 PM 75.2 °F - 64.4 °F 69% 29.96 in 10.0 mi South 5.8 mph - N/A   Scattered Clouds
10:53 PM 73.9 °F - 66.0 °F 76% 29.93 in 10.0 mi South 4.6 mph - N/A   Mostly Cloudy
11:53 PM 73.9 °F - 66.9 °F 79% 29.92 in 10.0 mi South 6.9 mph - N/A   Overcast